Time,TemperatureF,DewpointF,PressureIn,WindDirection,WindDirectionDegrees,WindSpeedMPH,WindSpeedGustMPH,Humidity,HourlyPrecipIn,Conditions,Clouds,dailyrainin,SoftwareType,DateUTC
2013-04-18 00:05:00,76.0,71.8,29.88,SE,145,8.0,11.0,87,0.00,,,0.00,Wunderground v.1.15,2013-04-18 05:05:00,
2013-04-18 00:15:00,76.1,71.9,29.88,SSE,153,9.0,10.0,87,0.00,,,0.00,Wunderground v.1.15,2013-04-18 05:15:00,
2013-04-18 00:20:00,76.0,71.8,29.89,SE,140,8.0,8.0,87,0.00,,,0.00,Wunderground v.1.15,2013-04-18 05:20:00,
2013-04-18 00:25:00,75.9,71.8,29.88,SSE,163,8.0,8.0,87,0.00,,,0.00,Wunderground v.1.15,2013-04-18 05:25:00,
2013-04-18 00:30:00,76.0,71.8,29.88,SSE,153,9.0,9.0,87,0.00,,,0.00,Wunderground v.1.15,2013-04-18 05:30:00,
2013-04-18 00:35:00,76.1,71.6,29.88,SE,125,10.0,10.0,86,0.00,,,0.00,Wunderground v.1.15,2013-04-18 05:35:00,
2013-04-18 00:40:00,76.0,71.5,29.88,SSW,193,10.0,10.0,86,0.00,,,0.00,Wunderground v.1.15,2013-04-18 05:40:00,
2013-04-18 00:45:00,75.9,71.4,29.88,SSE,155,10.0,10.0,86,0.00,,,0.00,Wunderground v.1.15,2013-04-18 05:45:00,
2013-04-18 00:50:00,75.9,71.4,29.88,South,172,9.0,11.0,86,0.00,,,0.00,Wunderground v.1.15,2013-04-18 05:50:00,
2013-04-18 00:55:00,75.9,71.4,29.88,SSE,158,9.0,11.0,86,0.00,,,0.00,Wunderground v.1.15,2013-04-18 05:55:00,
2013-04-18 01:05:00,75.9,71.4,29.88,South,174,9.0,18.0,86,0.00,,,0.00,Wunderground v.1.15,2013-04-18 06:05:00,
2013-04-18 01:10:00,75.9,71.4,29.88,SSE,159,9.0,9.0,86,0.00,,,0.00,Wunderground v.1.15,2013-04-18 06:10:00,
2013-04-18 01:15:00,75.8,71.3,29.88,SE,146,8.0,18.0,86,0.00,,,0.00,Wunderground v.1.15,2013-04-18 06:15:00,
2013-04-18 01:20:00,75.8,71.7,29.88,SE,139,7.0,7.0,87,0.00,,,0.00,Wunderground v.1.15,2013-04-18 06:20:00,
2013-04-18 01:25:00,75.7,71.6,29.87,SSE,147,7.0,9.0,87,0.00,,,0.00,Wunderground v.1.15,2013-04-18 06:25:00,
2013-04-18 01:30:00,75.7,71.2,29.87,SE,142,8.0,18.0,86,0.00,,,0.00,Wunderground v.1.15,2013-04-18 06:30:00,
2013-04-18 01:40:00,75.8,71.3,29.87,SSE,153,10.0,10.0,86,0.00,,,0.00,Wunderground v.1.15,2013-04-18 06:40:00,
2013-04-18 01:45:00,75.8,71.3,29.86,SE,131,10.0,12.0,86,0.00,,,0.00,Wunderground v.1.15,2013-04-18 06:45:00,
2013-04-18 01:50:00,75.7,71.6,29.86,SSE,163,10.0,10.0,87,0.00,,,0.00,Wunderground v.1.15,2013-04-18 06:50:00,
2013-04-18 02:00:00,75.6,71.5,29.86,SSE,147,8.0,18.0,87,0.00,,,0.00,Wunderground v.1.15,2013-04-18 07:00:00,
2013-04-18 02:05:00,75.6,71.5,29.86,SSE,150,8.0,18.0,87,0.00,,,0.00,Wunderground v.1.15,2013-04-18 07:05:00,
2013-04-18 02:15:00,75.4,71.3,29.86,SE,132,8.0,18.0,87,0.00,,,0.00,Wunderground v.1.15,2013-04-18 07:15:00,
2013-04-18 02:20:00,75.5,71.4,29.86,SE,141,9.0,9.0,87,0.00,,,0.00,Wunderground v.1.15,2013-04-18 07:20:00,
2013-04-18 02:25:00,75.5,71.4,29.85,SSE,150,9.0,10.0,87,0.00,,,0.00,Wunderground v.1.15,2013-04-18 07:25:00,
2013-04-18 02:30:00,75.6,71.1,29.86,South,175,10.0,18.0,86,0.00,,,0.00,Wunderground v.1.15,2013-04-18 07:30:00,
2013-04-18 02:35:00,75.5,71.0,29.86,SSE,151,9.0,18.0,86,0.00,,,0.00,Wunderground v.1.15,2013-04-18 07:35:00,
2013-04-18 02:40:00,75.5,71.0,29.86,South,169,8.0,18.0,86,0.00,,,0.00,Wunderground v.1.15,2013-04-18 07:40:00,
2013-04-18 02:45:00,75.5,71.0,29.86,SE,129,7.0,18.0,86,0.00,,,0.00,Wunderground v.1.15,2013-04-18 07:45:00,
2013-04-18 02:50:00,75.5,71.0,29.86,SE,135,8.0,8.0,86,0.00,,,0.00,Wunderground v.1.15,2013-04-18 07:50:00,
2013-04-18 02:55:00,75.5,71.0,29.85,SSW,192,8.0,18.0,86,0.00,,,0.00,Wunderground v.1.15,2013-04-18 07:55:00,
2013-04-18 03:00:00,75.4,70.9,29.85,South,171,7.0,7.0,86,0.00,,,0.00,Wunderground v.1.15,2013-04-18 08:00:00,
2013-04-18 03:05:00,75.3,71.2,29.85,SE,134,7.0,8.0,87,0.00,,,0.00,Wunderground v.1.15,2013-04-18 08:05:00,
2013-04-18 03:15:00,75.2,70.7,29.84,SE,128,7.0,18.0,86,0.00,,,0.00,Wunderground v.1.15,2013-04-18 08:15:00,
2013-04-18 03:20:00,75.1,71.0,29.84,SSE,148,6.0,18.0,87,0.00,,,0.00,Wunderground v.1.15,2013-04-18 08:20:00,
2013-04-18 03:25:00,75.1,71.0,29.84,SE,145,6.0,18.0,87,0.00,,,0.00,Wunderground v.1.15,2013-04-18 08:25:00,
2013-04-18 03:30:00,75.1,71.0,29.84,SSE,149,7.0,18.0,87,0.00,,,0.00,Wunderground v.1.15,2013-04-18 08:30:00,
2013-04-18 03:35:00,75.1,71.0,29.84,SSE,155,7.0,18.0,87,0.00,,,0.00,Wunderground v.1.15,2013-04-18 08:35:00,
2013-04-18 03:40:00,75.1,71.0,29.84,SSE,155,7.0,7.0,87,0.00,,,0.00,Wunderground v.1.15,2013-04-18 08:40:00,
2013-04-18 03:50:00,75.1,70.6,29.83,SSE,158,7.0,18.0,86,0.00,,,0.00,Wunderground v.1.15,2013-04-18 08:50:00,
2013-04-18 03:55:00,75.1,70.6,29.83,SSE,160,7.0,18.0,86,0.00,,,0.00,Wunderground v.1.15,2013-04-18 08:55:00,
2013-04-18 04:00:00,75.3,70.8,29.84,SSE,157,8.0,8.0,86,0.00,,,0.00,Wunderground v.1.15,2013-04-18 09:00:00,
2013-04-18 04:05:00,75.2,70.7,29.83,SSE,158,7.0,18.0,86,0.00,,,0.00,Wunderground v.1.15,2013-04-18 09:05:00,
2013-04-18 04:10:00,75.1,70.6,29.83,SSE,162,6.0,18.0,86,0.00,,,0.00,Wunderground v.1.15,2013-04-18 09:10:00,
2013-04-18 04:20:00,75.1,70.6,29.83,SSE,147,7.0,18.0,86,0.00,,,0.00,Wunderground v.1.15,2013-04-18 09:20:00,
2013-04-18 04:25:00,75.0,70.9,29.81,ESE,113,8.0,18.0,87,0.00,,,0.00,Wunderground v.1.15,2013-04-18 09:25:00,
2013-04-18 04:30:00,75.0,70.5,29.81,SE,131,10.0,10.0,86,0.00,,,0.00,Wunderground v.1.15,2013-04-18 09:30:00,
2013-04-18 04:35:00,75.1,70.6,29.81,South,171,10.0,18.0,86,0.00,,,0.00,Wunderground v.1.15,2013-04-18 09:35:00,
2013-04-18 04:40:00,75.1,70.6,29.80,SSE,162,11.0,11.0,86,0.00,,,0.00,Wunderground v.1.15,2013-04-18 09:40:00,
2013-04-18 04:45:00,75.0,70.5,29.80,South,186,10.0,18.0,86,0.00,,,0.00,Wunderground v.1.15,2013-04-18 09:45:00,
2013-04-18 04:55:00,74.9,70.4,29.80,SSE,150,10.0,18.0,86,0.00,,,0.00,Wunderground v.1.15,2013-04-18 09:55:00,
2013-04-18 05:00:00,74.9,70.4,29.80,SSE,151,9.0,18.0,86,0.00,,,0.00,Wunderground v.1.15,2013-04-18 10:00:00,
2013-04-18 05:05:00,74.9,70.4,29.80,SSE,165,8.0,18.0,86,0.00,,,0.00,Wunderground v.1.15,2013-04-18 10:05:00,
2013-04-18 05:10:00,74.9,70.4,29.80,South,172,9.0,9.0,86,0.00,,,0.00,Wunderground v.1.15,2013-04-18 10:10:00,
2013-04-18 05:15:00,74.9,70.8,29.80,SSE,153,9.0,18.0,87,0.00,,,0.00,Wunderground v.1.15,2013-04-18 10:15:00,
2013-04-18 05:25:00,74.8,70.7,29.79,South,188,9.0,18.0,87,0.00,,,0.00,Wunderground v.1.15,2013-04-18 10:25:00,
2013-04-18 05:30:00,74.8,70.7,29.79,SSE,165,9.0,18.0,87,0.00,,,0.00,Wunderground v.1.15,2013-04-18 10:30:00,
2013-04-18 05:35:00,74.8,70.7,29.79,SSE,165,10.0,18.0,87,0.00,,,0.00,Wunderground v.1.15,2013-04-18 10:35:00,
2013-04-18 05:40:00,74.7,70.6,29.79,SSE,162,8.0,18.0,87,0.00,,,0.00,Wunderground v.1.15,2013-04-18 10:40:00,
2013-04-18 05:45:00,74.8,70.7,29.79,SSE,159,9.0,18.0,87,0.00,,,0.00,Wunderground v.1.15,2013-04-18 10:45:00,
2013-04-18 05:50:00,74.8,70.7,29.79,SSE,150,10.0,18.0,87,0.00,,,0.00,Wunderground v.1.15,2013-04-18 10:50:00,
2013-04-18 05:55:00,74.8,70.7,29.79,SSE,167,9.0,18.0,87,0.00,,,0.00,Wunderground v.1.15,2013-04-18 10:55:00,
2013-04-18 06:00:00,74.8,70.7,29.79,SE,136,9.0,18.0,87,0.00,,,0.00,Wunderground v.1.15,2013-04-18 11:00:00,
2013-04-18 06:05:00,74.8,70.7,29.79,SE,146,9.0,18.0,87,0.00,,,0.00,Wunderground v.1.15,2013-04-18 11:05:00,
2013-04-18 06:10:00,74.8,70.7,29.78,SSE,160,10.0,18.0,87,0.00,,,0.00,Wunderground v.1.15,2013-04-18 11:10:00,
2013-04-18 06:15:00,74.8,70.7,29.79,SE,145,10.0,18.0,87,0.00,,,0.00,Wunderground v.1.15,2013-04-18 11:15:00,
2013-04-18 06:20:00,74.8,70.7,29.79,SE,146,9.0,9.0,87,0.00,,,0.00,Wunderground v.1.15,2013-04-18 11:20:00,
2013-04-18 06:30:00,74.9,70.4,29.79,SSE,160,10.0,10.0,86,0.00,,,0.00,Wunderground v.1.15,2013-04-18 11:30:00,
2013-04-18 06:35:00,74.9,70.4,29.79,SSE,164,10.0,18.0,86,0.00,,,0.00,Wunderground v.1.15,2013-04-18 11:35:00,
2013-04-18 06:40:00,74.9,70.4,29.79,SE,145,9.0,18.0,86,0.00,,,0.00,Wunderground v.1.15,2013-04-18 11:40:00,
2013-04-18 06:45:00,75.0,70.5,29.79,SSW,204,10.0,18.0,86,0.00,,,0.00,Wunderground v.1.15,2013-04-18 11:45:00,
2013-04-18 06:50:00,75.0,70.9,29.80,SE,139,10.0,10.0,87,0.00,,,0.00,Wunderground v.1.15,2013-04-18 11:50:00,
2013-04-18 07:00:00,75.0,70.5,29.80,ESE,120,9.0,9.0,86,0.00,,,0.00,Wunderground v.1.15,2013-04-18 12:00:00,
2013-04-18 07:05:00,75.0,70.5,29.80,SE,135,9.0,18.0,86,0.00,,,0.00,Wunderground v.1.15,2013-04-18 12:05:00,
2013-04-18 07:10:00,75.0,70.5,29.80,South,178,9.0,9.0,86,0.00,,,0.00,Wunderground v.1.15,2013-04-18 12:10:00,
2013-04-18 07:15:00,75.1,70.6,29.80,SSE,150,9.0,10.0,86,0.00,,,0.00,Wunderground v.1.15,2013-04-18 12:15:00,
2013-04-18 07:20:00,75.2,70.7,29.80,SE,146,11.0,11.0,86,0.00,,,0.00,Wunderground v.1.15,2013-04-18 12:20:00,
2013-04-18 07:25:00,75.3,70.8,29.80,SSE,163,11.0,18.0,86,0.00,,,0.00,Wunderground v.1.15,2013-04-18 12:25:00,
2013-04-18 07:35:00,75.3,70.8,29.80,SE,146,11.0,11.0,86,0.00,,,0.00,Wunderground v.1.15,2013-04-18 12:35:00,
2013-04-18 07:40:00,75.5,71.0,29.80,SSE,167,11.0,18.0,86,0.00,,,0.00,Wunderground v.1.15,2013-04-18 12:40:00,
2013-04-18 07:45:00,75.5,71.0,29.81,SSE,162,12.0,18.0,86,0.00,,,0.00,Wunderground v.1.15,2013-04-18 12:45:00,
2013-04-18 07:50:00,75.5,71.0,29.81,South,170,12.0,12.0,86,0.00,,,0.00,Wunderground v.1.15,2013-04-18 12:50:00,
2013-04-18 07:55:00,75.5,71.0,29.81,SSE,163,12.0,18.0,86,0.00,,,0.00,Wunderground v.1.15,2013-04-18 12:55:00,
2013-04-18 08:05:00,75.7,70.9,29.81,SE,128,12.0,18.0,85,0.00,,,0.00,Wunderground v.1.15,2013-04-18 13:05:00,
2013-04-18 08:10:00,75.8,71.0,29.82,South,169,12.0,18.0,85,0.00,,,0.00,Wunderground v.1.15,2013-04-18 13:10:00,
2013-04-18 08:15:00,75.9,71.1,29.82,SE,145,11.0,18.0,85,0.00,,,0.00,Wunderground v.1.15,2013-04-18 13:15:00,
2013-04-18 08:20:00,75.9,71.1,29.83,SSE,166,10.0,10.0,85,0.00,,,0.00,Wunderground v.1.15,2013-04-18 13:20:00,
2013-04-18 08:25:00,75.8,71.0,29.83,South,176,9.0,18.0,85,0.00,,,0.00,Wunderground v.1.15,2013-04-18 13:25:00,
2013-04-18 08:30:00,75.8,71.0,29.83,South,183,9.0,9.0,85,0.00,,,0.00,Wunderground v.1.15,2013-04-18 13:30:00,
2013-04-18 08:40:00,76.0,71.2,29.83,SE,134,12.0,12.0,85,0.00,,,0.00,Wunderground v.1.15,2013-04-18 13:40:00,
2013-04-18 08:45:00,75.9,71.1,29.82,South,172,12.0,18.0,85,0.00,,,0.00,Wunderground v.1.15,2013-04-18 13:45:00,
2013-04-18 08:50:00,75.9,71.4,29.82,SSE,164,10.0,18.0,86,0.00,,,0.00,Wunderground v.1.15,2013-04-18 13:50:00,
2013-04-18 08:55:00,76.0,71.2,29.82,SSE,156,10.0,18.0,85,0.00,,,0.00,Wunderground v.1.15,2013-04-18 13:55:00,
2013-04-18 09:00:00,76.1,71.3,29.83,SSE,160,10.0,18.0,85,0.00,,,0.00,Wunderground v.1.15,2013-04-18 14:00:00,
2013-04-18 09:10:00,76.2,71.4,29.83,South,176,10.0,10.0,85,0.00,,,0.00,Wunderground v.1.15,2013-04-18 14:10:00,
2013-04-18 09:15:00,76.3,71.5,29.83,SSE,165,10.0,18.0,85,0.00,,,0.00,Wunderground v.1.15,2013-04-18 14:15:00,
2013-04-18 09:20:00,76.3,71.5,29.83,South,169,9.0,9.0,85,0.00,,,0.00,Wunderground v.1.15,2013-04-18 14:20:00,
2013-04-18 09:25:00,76.4,71.6,29.83,South,176,9.0,18.0,85,0.00,,,0.00,Wunderground v.1.15,2013-04-18 14:25:00,
2013-04-18 09:30:00,76.6,71.7,29.83,SSE,165,8.0,18.0,85,0.00,,,0.00,Wunderground v.1.15,2013-04-18 14:30:00,
2013-04-18 09:35:00,76.8,71.9,29.83,SE,145,10.0,18.0,85,0.00,,,0.00,Wunderground v.1.15,2013-04-18 14:35:00,
2013-04-18 09:45:00,77.3,71.7,29.83,South,179,11.0,15.0,83,0.00,,,0.00,Wunderground v.1.15,2013-04-18 14:45:00,
2013-04-18 09:50:00,77.6,72.0,29.83,SSE,167,11.0,11.0,83,0.00,,,0.00,Wunderground v.1.15,2013-04-18 14:50:00,
2013-04-18 09:55:00,77.6,72.0,29.83,SE,131,12.0,13.0,83,0.00,,,0.00,Wunderground v.1.15,2013-04-18 14:55:00,
2013-04-18 10:00:00,77.8,71.9,29.83,South,186,12.0,18.0,82,0.00,,,0.00,Wunderground v.1.15,2013-04-18 15:00:00,
2013-04-18 10:05:00,78.1,72.2,29.83,South,181,13.0,18.0,82,0.00,,,0.00,Wunderground v.1.15,2013-04-18 15:05:00,
2013-04-18 10:10:00,78.1,71.8,29.83,SSE,156,14.0,14.0,81,0.00,,,0.00,Wunderground v.1.15,2013-04-18 15:10:00,
2013-04-18 10:15:00,78.2,71.9,29.83,South,188,12.0,15.0,81,0.00,,,0.00,Wunderground v.1.15,2013-04-18 15:15:00,
2013-04-18 10:20:00,78.2,71.9,29.82,South,169,12.0,18.0,81,0.00,,,0.00,Wunderground v.1.15,2013-04-18 15:20:00,
2013-04-18 10:25:00,78.3,72.3,29.83,SSE,161,12.0,18.0,82,0.00,,,0.00,Wunderground v.1.15,2013-04-18 15:25:00,
2013-04-18 10:30:00,78.6,72.3,29.83,South,175,10.0,18.0,81,0.00,,,0.00,Wunderground v.1.15,2013-04-18 15:30:00,
2013-04-18 10:35:00,79.0,72.7,29.83,SSE,162,10.0,18.0,81,0.00,,,0.00,Wunderground v.1.15,2013-04-18 15:35:00,
2013-04-18 10:45:00,79.5,73.2,29.82,South,170,11.0,18.0,81,0.00,,,0.00,Wunderground v.1.15,2013-04-18 15:45:00,
2013-04-18 10:50:00,79.8,73.1,29.82,SW,215,11.0,11.0,80,0.00,,,0.00,Wunderground v.1.15,2013-04-18 15:50:00,
2013-04-18 10:55:00,80.5,72.6,29.82,South,169,12.0,13.0,77,0.00,,,0.00,Wunderground v.1.15,2013-04-18 15:55:00,
2013-04-18 11:00:00,80.0,72.9,29.82,South,172,12.0,18.0,79,0.00,,,0.00,Wunderground v.1.15,2013-04-18 16:00:00,
2013-04-18 11:05:00,80.0,72.9,29.82,South,176,11.0,18.0,79,0.00,,,0.00,Wunderground v.1.15,2013-04-18 16:05:00,
2013-04-18 11:10:00,80.4,72.9,29.82,South,170,10.0,18.0,78,0.00,,,0.00,Wunderground v.1.15,2013-04-18 16:10:00,
2013-04-18 11:20:00,80.5,73.0,29.81,SE,140,13.0,18.0,78,0.00,,,0.00,Wunderground v.1.15,2013-04-18 16:20:00,
2013-04-18 11:25:00,80.4,72.5,29.81,South,191,14.0,18.0,77,0.00,,,0.00,Wunderground v.1.15,2013-04-18 16:25:00,
2013-04-18 11:30:00,80.8,72.5,29.81,South,180,14.0,18.0,76,0.00,,,0.00,Wunderground v.1.15,2013-04-18 16:30:00,
2013-04-18 11:35:00,81.2,72.9,29.81,SSE,168,14.0,18.0,76,0.00,,,0.00,Wunderground v.1.15,2013-04-18 16:35:00,
2013-04-18 11:40:00,81.2,72.9,29.80,South,169,16.0,16.0,76,0.00,,,0.00,Wunderground v.1.15,2013-04-18 16:40:00,
2013-04-18 11:50:00,81.3,73.0,29.81,SE,139,14.0,14.0,76,0.00,,,0.00,Wunderground v.1.15,2013-04-18 16:50:00,
2013-04-18 11:55:00,81.6,72.5,29.80,SSE,160,14.0,18.0,74,0.00,,,0.00,Wunderground v.1.15,2013-04-18 16:55:00,
2013-04-18 12:00:00,82.0,72.9,29.80,South,172,16.0,22.0,74,0.00,,,0.00,Wunderground v.1.15,2013-04-18 17:00:00,
2013-04-18 12:05:00,82.2,72.7,29.79,SSE,167,16.0,22.0,73,0.00,,,0.00,Wunderground v.1.15,2013-04-18 17:05:00,
2013-04-18 12:10:00,82.3,73.2,29.80,South,169,17.0,17.0,74,0.00,,,0.00,Wunderground v.1.15,2013-04-18 17:10:00,
2013-04-18 12:15:00,82.4,73.3,29.79,SE,138,16.0,18.0,74,0.00,,,0.00,Wunderground v.1.15,2013-04-18 17:15:00,
2013-04-18 12:25:00,82.5,72.1,29.79,South,173,19.0,23.0,71,0.00,,,0.00,Wunderground v.1.15,2013-04-18 17:25:00,
2013-04-18 12:30:00,82.5,72.1,29.79,South,170,20.0,21.0,71,0.00,,,0.00,Wunderground v.1.15,2013-04-18 17:30:00,
2013-04-18 12:35:00,82.7,72.3,29.78,SSE,168,19.0,24.0,71,0.00,,,0.00,Wunderground v.1.15,2013-04-18 17:35:00,
2013-04-18 12:40:00,82.9,72.5,29.78,South,186,18.0,23.0,71,0.00,,,0.00,Wunderground v.1.15,2013-04-18 17:40:00,
2013-04-18 12:45:00,83.0,73.0,29.78,SE,145,17.0,23.0,72,0.00,,,0.00,Wunderground v.1.15,2013-04-18 17:45:00,
2013-04-18 12:55:00,83.2,72.8,29.78,SSE,165,15.0,25.0,71,0.00,,,0.00,Wunderground v.1.15,2013-04-18 17:55:00,
2013-04-18 13:00:00,83.3,73.3,29.78,SSE,158,16.0,16.0,72,0.00,,,0.00,Wunderground v.1.15,2013-04-18 18:00:00,
2013-04-18 13:05:00,83.4,72.6,29.78,SE,146,17.0,17.0,70,0.00,,,0.00,Wunderground v.1.15,2013-04-18 18:05:00,
2013-04-18 13:10:00,83.2,72.4,29.78,SSE,149,17.0,17.0,70,0.00,,,0.00,Wunderground v.1.15,2013-04-18 18:10:00,
2013-04-18 13:15:00,83.0,72.6,29.78,SSE,155,17.0,19.0,71,0.00,,,0.00,Wunderground v.1.15,2013-04-18 18:15:00,
2013-04-18 13:20:00,82.9,72.1,29.78,SSE,160,16.0,22.0,70,0.00,,,0.00,Wunderground v.1.15,2013-04-18 18:20:00,
2013-04-18 13:30:00,83.2,73.2,29.78,SSE,167,14.0,18.0,72,0.00,,,0.00,Wunderground v.1.15,2013-04-18 18:30:00,
2013-04-18 13:35:00,82.9,72.5,29.78,SSE,157,14.0,18.0,71,0.00,,,0.00,Wunderground v.1.15,2013-04-18 18:35:00,
2013-04-18 13:40:00,82.9,72.9,29.78,SSE,163,16.0,16.0,72,0.00,,,0.00,Wunderground v.1.15,2013-04-18 18:40:00,
2013-04-18 13:45:00,83.0,73.0,29.78,SSW,200,15.0,18.0,72,0.00,,,0.00,Wunderground v.1.15,2013-04-18 18:45:00,
2013-04-18 13:50:00,83.1,72.7,29.78,SSE,168,13.0,18.0,71,0.00,,,0.00,Wunderground v.1.15,2013-04-18 18:50:00,
2013-04-18 13:55:00,83.1,72.7,29.78,SSE,152,14.0,18.0,71,0.00,,,0.00,Wunderground v.1.15,2013-04-18 18:55:00,
2013-04-18 14:00:00,82.6,72.7,29.78,South,180,15.0,15.0,72,0.00,,,0.00,Wunderground v.1.15,2013-04-18 19:00:00,
2013-04-18 14:05:00,82.7,72.3,29.78,SSE,168,13.0,18.0,71,0.00,,,0.00,Wunderground v.1.15,2013-04-18 19:05:00,
2013-04-18 14:10:00,82.5,72.6,29.78,SSE,167,13.0,18.0,72,0.00,,,0.00,Wunderground v.1.15,2013-04-18 19:10:00,
2013-04-18 14:15:00,82.2,72.3,29.78,SE,145,15.0,18.0,72,0.00,,,0.00,Wunderground v.1.15,2013-04-18 19:15:00,
2013-04-18 14:20:00,82.0,72.5,29.78,SSE,157,15.0,18.0,73,0.00,,,0.00,Wunderground v.1.15,2013-04-18 19:20:00,
2013-04-18 14:30:00,81.8,72.3,29.78,South,180,14.0,14.0,73,0.00,,,0.00,Wunderground v.1.15,2013-04-18 19:30:00,
2013-04-18 14:35:00,81.6,72.5,29.78,SSE,159,13.0,18.0,74,0.00,,,0.00,Wunderground v.1.15,2013-04-18 19:35:00,
2013-04-18 14:40:00,81.6,72.9,29.78,South,189,12.0,12.0,75,0.00,,,0.00,Wunderground v.1.15,2013-04-18 19:40:00,
2013-04-18 14:45:00,81.6,72.9,29.78,SSE,166,11.0,18.0,75,0.00,,,0.00,Wunderground v.1.15,2013-04-18 19:45:00,
2013-04-18 14:50:00,81.6,72.9,29.78,South,180,10.0,10.0,75,0.00,,,0.00,Wunderground v.1.15,2013-04-18 19:50:00,
2013-04-18 14:55:00,81.5,72.4,29.77,South,173,10.0,25.0,74,0.00,,,0.00,Wunderground v.1.15,2013-04-18 19:55:00,
2013-04-18 15:05:00,81.4,72.3,29.77,SSW,199,15.0,18.0,74,0.00,,,0.00,Wunderground v.1.15,2013-04-18 20:05:00,
2013-04-18 15:10:00,81.4,71.9,29.76,SE,137,16.0,16.0,73,0.00,,,0.00,Wunderground v.1.15,2013-04-18 20:10:00,
2013-04-18 15:15:00,81.3,72.6,29.77,SSW,203,16.0,18.0,75,0.00,,,0.00,Wunderground v.1.15,2013-04-18 20:15:00,
2013-04-18 15:20:00,81.3,72.6,29.76,SSE,163,14.0,14.0,75,0.00,,,0.00,Wunderground v.1.15,2013-04-18 20:20:00,
2013-04-18 15:25:00,81.2,72.1,29.76,South,179,14.0,18.0,74,0.00,,,0.00,Wunderground v.1.15,2013-04-18 20:25:00,
2013-04-18 15:35:00,81.0,72.3,29.76,SSE,158,13.0,21.0,75,0.00,,,0.00,Wunderground v.1.15,2013-04-18 20:35:00,
2013-04-18 15:40:00,80.9,72.2,29.76,SSE,158,14.0,18.0,75,0.00,,,0.00,Wunderground v.1.15,2013-04-18 20:40:00,
2013-04-18 15:45:00,81.1,72.8,29.76,SSE,161,15.0,18.0,76,0.00,,,0.00,Wunderground v.1.15,2013-04-18 20:45:00,
2013-04-18 15:50:00,81.0,72.3,29.76,SSW,192,14.0,14.0,75,0.00,,,0.00,Wunderground v.1.15,2013-04-18 20:50:00,
2013-04-18 15:55:00,81.0,73.1,29.75,SSW,198,13.0,18.0,77,0.00,,,0.00,Wunderground v.1.15,2013-04-18 20:55:00,
2013-04-18 16:00:00,81.2,72.9,29.75,SSE,155,12.0,18.0,76,0.00,,,0.00,Wunderground v.1.15,2013-04-18 21:00:00,
2013-04-18 16:10:00,80.8,72.5,29.75,South,176,12.0,12.0,76,0.00,,,0.00,Wunderground v.1.15,2013-04-18 21:10:00,
2013-04-18 16:15:00,81.1,73.2,29.75,South,191,11.0,16.0,77,0.00,,,0.00,Wunderground v.1.15,2013-04-18 21:15:00,
2013-04-18 16:20:00,81.0,72.7,29.75,South,173,12.0,18.0,76,0.00,,,0.00,Wunderground v.1.15,2013-04-18 21:20:00,
2013-04-18 16:25:00,80.4,72.5,29.75,SW,217,14.0,18.0,77,0.00,,,0.00,Wunderground v.1.15,2013-04-18 21:25:00,
2013-04-18 16:30:00,80.3,72.8,29.75,SSE,155,12.0,18.0,78,0.00,,,0.00,Wunderground v.1.15,2013-04-18 21:30:00,
2013-04-18 16:40:00,79.7,72.6,29.75,SSE,160,11.0,11.0,79,0.00,,,0.00,Wunderground v.1.15,2013-04-18 21:40:00,
2013-04-18 16:45:00,79.6,72.9,29.74,South,190,9.0,17.0,80,0.00,,,0.00,Wunderground v.1.15,2013-04-18 21:45:00,
2013-04-18 16:50:00,79.5,72.8,29.74,South,176,11.0,11.0,80,0.00,,,0.00,Wunderground v.1.15,2013-04-18 21:50:00,
2013-04-18 16:55:00,79.3,72.6,29.74,South,191,12.0,12.0,80,0.00,,,0.00,Wunderground v.1.15,2013-04-18 21:55:00,
2013-04-18 17:00:00,79.1,72.4,29.74,SSW,205,10.0,10.0,80,0.00,,,0.00,Wunderground v.1.15,2013-04-18 22:00:00,
2013-04-18 17:05:00,79.1,72.8,29.74,SSW,208,9.0,18.0,81,0.00,,,0.00,Wunderground v.1.15,2013-04-18 22:05:00,
2013-04-18 17:15:00,78.9,72.6,29.74,SE,139,10.0,18.0,81,0.00,,,0.00,Wunderground v.1.15,2013-04-18 22:15:00,
2013-04-18 17:20:00,78.7,72.4,29.74,SSE,166,12.0,18.0,81,0.00,,,0.00,Wunderground v.1.15,2013-04-18 22:20:00,
2013-04-18 17:25:00,78.5,72.2,29.74,South,184,13.0,18.0,81,0.00,,,0.00,Wunderground v.1.15,2013-04-18 22:25:00,
2013-04-18 17:30:00,78.4,72.4,29.74,SSE,162,11.0,11.0,82,0.00,,,0.00,Wunderground v.1.15,2013-04-18 22:30:00,
2013-04-18 17:35:00,78.2,72.3,29.74,South,178,10.0,18.0,82,0.00,,,0.00,Wunderground v.1.15,2013-04-18 22:35:00,
2013-04-18 17:40:00,78.0,72.4,29.74,SSE,158,10.0,10.0,83,0.00,,,0.00,Wunderground v.1.15,2013-04-18 22:40:00,
2013-04-18 17:45:00,77.7,72.5,29.74,SSE,167,10.0,18.0,84,0.00,,,0.00,Wunderground v.1.15,2013-04-18 22:45:00,
2013-04-18 17:50:00,77.5,72.3,29.74,SSW,197,9.0,18.0,84,0.00,,,0.00,Wunderground v.1.15,2013-04-18 22:50:00,
2013-04-18 17:55:00,77.4,72.2,29.74,SSW,210,11.0,18.0,84,0.00,,,0.00,Wunderground v.1.15,2013-04-18 22:55:00,
2013-04-18 18:00:00,77.4,72.2,29.74,South,172,11.0,18.0,84,0.00,,,0.00,Wunderground v.1.15,2013-04-18 23:00:00,
2013-04-18 18:05:00,77.3,72.1,29.74,SSE,160,11.0,18.0,84,0.00,,,0.00,Wunderground v.1.15,2013-04-18 23:05:00,
2013-04-18 18:15:00,77.2,72.3,29.74,SSE,167,12.0,18.0,85,0.00,,,0.00,Wunderground v.1.15,2013-04-18 23:15:00,
2013-04-18 18:20:00,77.2,72.3,29.74,South,169,11.0,18.0,85,0.00,,,0.00,Wunderground v.1.15,2013-04-18 23:20:00,
2013-04-18 18:25:00,77.2,72.3,29.74,SE,146,10.0,18.0,85,0.00,,,0.00,Wunderground v.1.15,2013-04-18 23:25:00,
2013-04-18 18:30:00,77.2,72.3,29.74,SSE,165,10.0,18.0,85,0.00,,,0.00,Wunderground v.1.15,2013-04-18 23:30:00,
2013-04-18 18:35:00,77.2,72.3,29.74,SSE,147,11.0,18.0,85,0.00,,,0.00,Wunderground v.1.15,2013-04-18 23:35:00,
2013-04-18 18:40:00,77.2,72.3,29.75,South,176,10.0,10.0,85,0.00,,,0.00,Wunderground v.1.15,2013-04-18 23:40:00,
2013-04-18 18:50:00,77.0,72.1,29.75,SSW,193,9.0,18.0,85,0.00,,,0.00,Wunderground v.1.15,2013-04-18 23:50:00,
2013-04-18 18:55:00,77.0,72.1,29.75,SSE,161,8.0,18.0,85,0.00,,,0.00,Wunderground v.1.15,2013-04-18 23:55:00,
2013-04-18 19:00:00,76.9,72.0,29.75,South,173,7.0,7.0,85,0.00,,,0.00,Wunderground v.1.15,2013-04-19 00:00:00,
2013-04-18 19:05:00,76.9,72.4,29.75,SSW,212,8.0,9.0,86,0.00,,,0.00,Wunderground v.1.15,2013-04-19 00:05:00,
2013-04-18 19:10:00,76.9,72.4,29.76,South,179,8.0,8.0,86,0.00,,,0.00,Wunderground v.1.15,2013-04-19 00:10:00,
2013-04-18 19:20:00,76.8,72.3,29.76,South,183,7.0,7.0,86,0.00,,,0.00,Wunderground v.1.15,2013-04-19 00:20:00,
2013-04-18 19:25:00,76.7,72.2,29.75,SE,128,8.0,8.0,86,0.00,,,0.00,Wunderground v.1.15,2013-04-19 00:25:00,
2013-04-18 19:30:00,76.7,72.2,29.76,SSW,210,8.0,8.0,86,0.00,,,0.00,Wunderground v.1.15,2013-04-19 00:30:00,
2013-04-18 19:35:00,76.6,72.4,29.76,SSE,160,7.0,10.0,87,0.00,,,0.00,Wunderground v.1.15,2013-04-19 00:35:00,
2013-04-18 19:40:00,76.6,72.4,29.76,SW,221,8.0,8.0,87,0.00,,,0.00,Wunderground v.1.15,2013-04-19 00:40:00,
2013-04-18 19:45:00,76.4,72.2,29.76,South,174,7.0,18.0,87,0.00,,,0.00,Wunderground v.1.15,2013-04-19 00:45:00,
2013-04-18 19:55:00,76.3,72.5,29.79,NNW,333,5.0,18.0,88,0.00,,,0.00,Wunderground v.1.15,2013-04-19 00:55:00,
2013-04-18 20:00:00,68.6,60.4,29.79,NW,307,9.0,18.0,75,0.00,,,0.00,Wunderground v.1.15,2013-04-19 01:00:00,
2013-04-18 20:05:00,63.3,58.4,29.82,WNW,298,16.0,18.0,84,0.00,,,0.00,Wunderground v.1.15,2013-04-19 01:05:00,
2013-04-18 20:10:00,60.4,57.5,29.82,North,351,15.0,18.0,90,0.00,,,0.00,Wunderground v.1.15,2013-04-19 01:10:00,
2013-04-18 20:15:00,58.8,56.5,29.82,NNW,343,15.0,22.0,92,0.00,,,0.00,Wunderground v.1.15,2013-04-19 01:15:00,
2013-04-18 20:25:00,57.2,54.9,29.84,North,356,17.0,19.0,92,0.00,,,0.00,Wunderground v.1.15,2013-04-19 01:25:00,
2013-04-18 20:30:00,56.9,55.2,29.84,NNW,328,16.0,16.0,94,0.00,,,0.00,Wunderground v.1.15,2013-04-19 01:30:00,
2013-04-18 20:35:00,56.8,55.1,29.84,NNW,334,15.0,18.0,94,0.00,,,0.00,Wunderground v.1.15,2013-04-19 01:35:00,
2013-04-18 20:40:00,56.7,55.0,29.85,NNW,342,16.0,18.0,94,0.00,,,0.00,Wunderground v.1.15,2013-04-19 01:40:00,
2013-04-18 20:45:00,56.8,55.4,29.85,North,349,15.0,18.0,95,0.00,,,0.00,Wunderground v.1.15,2013-04-19 01:45:00,
2013-04-18 20:50:00,56.8,55.4,29.85,North,358,13.0,18.0,95,0.00,,,0.00,Wunderground v.1.15,2013-04-19 01:50:00,
2013-04-18 20:55:00,56.9,55.8,29.86,NNW,343,11.0,18.0,96,0.00,,,0.00,Wunderground v.1.15,2013-04-19 01:55:00,
2013-04-18 21:00:00,57.0,55.9,29.86,North,351,10.0,10.0,96,0.00,,,0.00,Wunderground v.1.15,2013-04-19 02:00:00,
2013-04-18 21:05:00,57.0,55.9,29.87,North,359,9.0,15.0,96,0.00,,,0.01,Wunderground v.1.15,2013-04-19 02:05:00,
2013-04-18 21:10:00,57.0,55.9,29.88,NW,321,9.0,9.0,96,0.00,,,0.01,Wunderground v.1.15,2013-04-19 02:10:00,
2013-04-18 21:15:00,56.8,55.4,29.89,NW,322,10.0,10.0,95,0.00,,,0.01,Wunderground v.1.15,2013-04-19 02:15:00,
2013-04-18 21:20:00,56.3,54.6,29.89,NNW,335,11.0,18.0,94,0.00,,,0.01,Wunderground v.1.15,2013-04-19 02:20:00,
2013-04-18 21:30:00,55.4,54.0,29.89,NNW,342,12.0,18.0,95,0.00,,,0.01,Wunderground v.1.15,2013-04-19 02:30:00,
2013-04-18 21:35:00,55.1,53.7,29.89,NNW,346,12.0,18.0,95,0.00,,,0.01,Wunderground v.1.15,2013-04-19 02:35:00,
2013-04-18 21:40:00,55.0,53.6,29.91,NW,311,12.0,12.0,95,0.00,,,0.01,Wunderground v.1.15,2013-04-19 02:40:00,
2013-04-18 21:45:00,54.9,53.8,29.91,NW,319,11.0,18.0,96,0.00,,,0.01,Wunderground v.1.15,2013-04-19 02:45:00,
2013-04-18 21:50:00,54.8,53.7,29.91,NW,319,10.0,10.0,96,0.00,,,0.01,Wunderground v.1.15,2013-04-19 02:50:00,
2013-04-18 22:00:00,54.8,54.0,29.92,NNW,328,8.0,18.0,97,0.00,,,0.01,Wunderground v.1.15,2013-04-19 03:00:00,
2013-04-18 22:05:00,54.7,53.6,29.92,NNW,337,8.0,18.0,96,0.00,,,0.01,Wunderground v.1.15,2013-04-19 03:05:00,
2013-04-18 22:10:00,54.7,53.9,29.92,North,353,8.0,18.0,97,0.00,,,0.01,Wunderground v.1.15,2013-04-19 03:10:00,
2013-04-18 22:15:00,54.7,53.9,29.94,NW,322,8.0,18.0,97,0.00,,,0.01,Wunderground v.1.15,2013-04-19 03:15:00,
2013-04-18 22:20:00,54.6,53.8,29.93,NNW,334,8.0,8.0,97,0.00,,,0.01,Wunderground v.1.15,2013-04-19 03:20:00,
2013-04-18 22:25:00,54.6,53.8,29.94,NNW,341,8.0,11.0,97,0.00,,,0.01,Wunderground v.1.15,2013-04-19 03:25:00,
2013-04-18 22:35:00,54.5,53.7,29.93,NNW,340,7.0,18.0,97,0.00,,,0.01,Wunderground v.1.15,2013-04-19 03:35:00,
2013-04-18 22:40:00,54.5,53.7,29.93,NNW,331,6.0,6.0,97,0.00,,,0.01,Wunderground v.1.15,2013-04-19 03:40:00,
2013-04-18 22:45:00,54.3,53.5,29.94,NNW,332,7.0,7.0,97,0.00,,,0.01,Wunderground v.1.15,2013-04-19 03:45:00,
2013-04-18 22:50:00,54.3,53.5,29.94,NNW,330,7.0,7.0,97,0.00,,,0.01,Wunderground v.1.15,2013-04-19 03:50:00,
2013-04-18 22:55:00,54.1,53.0,29.94,NNW,338,8.0,8.0,96,0.31,,,0.04,Wunderground v.1.15,2013-04-19 03:55:00,
2013-04-18 23:05:00,54.1,53.3,29.94,WSW,257,7.0,18.0,97,0.07,,,0.05,Wunderground v.1.15,2013-04-19 04:05:00,
2013-04-18 23:10:00,53.9,53.1,29.95,NNW,329,7.0,18.0,97,0.05,,,0.06,Wunderground v.1.15,2013-04-19 04:10:00,
2013-04-18 23:15:00,53.7,52.6,29.95,NW,308,9.0,18.0,96,0.05,,,0.06,Wunderground v.1.15,2013-04-19 04:15:00,
2013-04-18 23:20:00,53.1,51.4,29.95,North,353,12.0,18.0,94,0.05,,,0.06,Wunderground v.1.15,2013-04-19 04:20:00,
2013-04-18 23:25:00,52.8,51.1,29.95,North,4,12.0,18.0,94,0.00,,,0.06,Wunderground v.1.15,2013-04-19 04:25:00,
2013-04-18 23:30:00,52.6,51.2,29.95,WNW,283,11.0,11.0,95,0.00,,,0.06,Wunderground v.1.15,2013-04-19 04:30:00,
2013-04-18 23:40:00,52.6,51.2,29.95,North,349,8.0,8.0,95,0.00,,,0.06,Wunderground v.1.15,2013-04-19 04:40:00,
2013-04-18 23:45:00,52.7,51.6,29.96,WNW,299,7.0,18.0,96,0.00,,,0.06,Wunderground v.1.15,2013-04-19 04:45:00,
2013-04-18 23:50:00,52.8,51.7,29.97,North,350,7.0,18.0,96,0.00,,,0.06,Wunderground v.1.15,2013-04-19 04:50:00,
2013-04-18 23:55:00,52.7,51.3,29.97,NNW,328,8.0,18.0,95,0.00,,,0.06,Wunderground v.1.15,2013-04-19 04:55:00,